Soldotna, AK

1:47 AM AKST on November 19, 2017 (GMT -0900)
Soldotna

Weather History for PASX - July, 2014

Change the Weather History Date:

Wednesday, July 30, 2014

  Actual Average Record
Temperature  
Mean Temperature 58 °F -  
Max Temperature 69 °F 61 °F 77 °F (2002)
Min Temperature 46 °F 49 °F 40 °F (1957)
Degree Days  
Heating Degree Days 8    
Growing Degree Days 8 (Base 50)    
Moisture  
Dew Point 49 °F    
Average Humidity 69    
Maximum Humidity 93    
Minimum Humidity 46    
Precipitation  
Precipitation 0.00 in - - ()
Sea Level Pressure  
Sea Level Pressure 30.11 in    
Wind  
Wind Speed 4 mph (WSW)    
Max Wind Speed 16 mph    
Max Gust Speed 18 mph    
Visibility 10 miles    
Events      
Averages and records for this station are not official NWS values.
T = Trace of Precipitation, MM = Missing Value Source: NWS Daily Summary

Daily Weather History Graph

Daily Weather History Graph

Search for Another Location

Airport or City:

Trip Planner

Search our weather history database for the weather conditions in past years. The results will help you decide how hot, cold, wet, or windy it might be!

Date:

Astronomy

Jul. 30, 2014 Rise Set
Actual Time 5:37 AM AKDT 10:42 PM AKDT
Civil Twilight 4:33 AM AKDT 11:45 PM AKDT
Nautical Twilight 2:43 AM AKDT 1:38 AM AKDT
Astronomical Twilight Sun does not rise Sun does not rise
Moon 10:35 AM AKDT (7/30) 11:06 PM AKDT (7/30)
Length of Visible Light 19h 12m
Length of Day
17h 04m
Waxing Crescent, 13% of the Moon is Illuminated
Jul 30
Waxing Crescent
Aug 3
First Quarter
Aug 10
Full
Aug 17
Last Quarter
Aug 25
New

Hourly Weather History & Observations

Time (AKDT) Temp. Dew Point Humidity Pressure Visibility Wind Dir Wind Speed Gust Speed Precip Events Conditions
12:16 AM 60.8 °F 48.2 °F 63% 29.96 in 10.0 mi WSW 4.6 mph - N/A   Overcast
12:36 AM 60.8 °F 48.2 °F 63% 29.97 in 10.0 mi Calm Calm - N/A   Mostly Cloudy
12:56 AM 59.0 °F 48.2 °F 67% 29.98 in 10.0 mi NE 3.5 mph - N/A   Scattered Clouds
1:16 AM 57.2 °F 48.2 °F 72% 29.98 in 10.0 mi Calm Calm - N/A   Scattered Clouds
1:36 AM 59.0 °F 48.2 °F 67% 29.98 in 10.0 mi Calm Calm - N/A   Clear
1:56 AM 57.2 °F 46.4 °F 67% 29.98 in 10.0 mi Calm Calm - N/A   Partly Cloudy
2:16 AM 57.2 °F 48.2 °F 72% 29.98 in 10.0 mi NNW 4.6 mph - N/A   Mostly Cloudy
2:36 AM 57.2 °F 48.2 °F 72% 29.98 in 10.0 mi Calm Calm - N/A   Mostly Cloudy
2:56 AM 55.4 °F 48.2 °F 77% 29.99 in 10.0 mi Calm Calm - N/A   Clear
3:16 AM 51.8 °F 46.4 °F 82% 29.99 in 10.0 mi Calm Calm - N/A   Clear
3:36 AM 53.6 °F 48.2 °F 82% 29.99 in 10.0 mi Calm Calm - N/A   Clear
3:56 AM 51.8 °F 46.4 °F 82% 30.00 in 10.0 mi Calm Calm - N/A   Clear
4:16 AM 51.8 °F 46.4 °F 82% 30.00 in 10.0 mi Calm Calm - N/A   Clear
4:36 AM 48.2 °F 44.6 °F 87% 30.01 in 10.0 mi Calm Calm - N/A   Clear
4:56 AM 50.0 °F 46.4 °F 87% 30.01 in 10.0 mi Calm Calm - N/A   Clear
5:16 AM 48.2 °F 46.4 °F 93% 30.02 in 10.0 mi Calm Calm - N/A   Clear
5:36 AM 48.2 °F 44.6 °F 87% 30.02 in 10.0 mi East 3.5 mph - N/A   Clear
5:56 AM 46.4 °F 42.8 °F 87% 30.03 in 10.0 mi Calm Calm - N/A   Clear
6:16 AM 48.2 °F 44.6 °F 87% 30.04 in 10.0 mi Calm Calm - N/A   Clear
6:36 AM 48.2 °F 44.6 °F 87% 30.04 in 10.0 mi Calm Calm - N/A   Clear
6:56 AM 48.2 °F 44.6 °F 87% 30.04 in 10.0 mi East 3.5 mph - N/A   Clear
7:16 AM 50.0 °F 46.4 °F 87% 30.05 in 10.0 mi Calm Calm - N/A   Clear
7:36 AM 51.8 °F 46.4 °F 82% 30.06 in 10.0 mi Calm Calm - N/A   Clear
7:56 AM 53.6 °F 48.2 °F 82% 30.06 in 10.0 mi East 4.6 mph - N/A   Clear
8:16 AM 55.4 °F 48.2 °F 77% 30.07 in 10.0 mi ENE 3.5 mph - N/A   Clear
8:36 AM 57.2 °F 48.2 °F 72% 30.07 in 10.0 mi East 3.5 mph - N/A   Partly Cloudy
8:56 AM 57.2 °F 50.0 °F 77% 30.08 in 10.0 mi Calm Calm - N/A   Clear
9:16 AM 59.0 °F 50.0 °F 72% 30.09 in 10.0 mi Calm Calm - N/A   Clear
9:36 AM 60.8 °F 50.0 °F 68% 30.09 in 10.0 mi Calm Calm - N/A   Clear
9:56 AM 62.6 °F 50.0 °F 63% 30.10 in 10.0 mi Calm Calm - N/A   Clear
10:16 AM 62.6 °F 50.0 °F 63% 30.10 in 10.0 mi ENE 3.5 mph - N/A   Clear
10:36 AM 64.4 °F 50.0 °F 59% 30.11 in 10.0 mi NE 3.5 mph - N/A   Clear
10:56 AM 66.2 °F 50.0 °F 56% 30.11 in 10.0 mi Calm Calm - N/A   Clear
11:16 AM 66.2 °F 50.0 °F 56% 30.11 in 10.0 mi Calm Calm - N/A   Clear
11:36 AM 68.0 °F 50.0 °F 52% 30.11 in 10.0 mi Calm Calm - N/A   Clear
11:56 AM 69.8 °F 48.2 °F 46% 30.12 in 10.0 mi SSW 4.6 mph - N/A   Clear
12:16 PM 69.8 °F 51.8 °F 53% 30.12 in 10.0 mi West 9.2 mph - N/A   Clear
12:36 PM 66.2 °F 53.6 °F 64% 30.13 in 10.0 mi WNW 11.5 mph - N/A   Clear
12:56 PM 66.2 °F 51.8 °F 60% 30.14 in 10.0 mi WNW 13.8 mph - N/A   Clear
1:16 PM 66.2 °F 53.6 °F 64% 30.14 in 10.0 mi West 13.8 mph - N/A   Clear
1:36 PM 66.2 °F 53.6 °F 64% 30.14 in 10.0 mi WSW 12.7 mph - N/A   Clear
1:56 PM 64.4 °F 51.8 °F 64% 30.15 in 10.0 mi West 11.5 mph - N/A   Clear
2:16 PM 64.4 °F 51.8 °F 64% 30.16 in 10.0 mi West 13.8 mph 17.3 mph N/A   Clear
2:36 PM 64.4 °F 53.6 °F 68% 30.16 in 10.0 mi West 13.8 mph 18.4 mph N/A   Clear
2:56 PM 66.2 °F 51.8 °F 60% 30.16 in 10.0 mi West 16.1 mph - N/A   Clear
3:16 PM 66.2 °F 51.8 °F 60% 30.16 in 10.0 mi West 12.7 mph - N/A   Clear
3:36 PM 66.2 °F 51.8 °F 60% 30.17 in 10.0 mi SW 9.2 mph - N/A   Clear
3:56 PM 66.2 °F 51.8 °F 60% 30.17 in 10.0 mi West 15.0 mph 18.4 mph N/A   Clear
4:16 PM 66.2 °F 51.8 °F 60% 30.18 in 10.0 mi West 15.0 mph - N/A   Clear
4:36 PM 66.2 °F 51.8 °F 60% 30.18 in 10.0 mi West 11.5 mph - N/A   Clear
4:56 PM 66.2 °F 51.8 °F 60% 30.18 in 10.0 mi West 12.7 mph - N/A   Clear
5:16 PM 66.2 °F 51.8 °F 60% 30.19 in 10.0 mi West 13.8 mph - N/A   Clear
5:36 PM 64.4 °F 50.0 °F 59% 30.19 in 10.0 mi WSW 11.5 mph - N/A   Clear
5:56 PM 64.4 °F 50.0 °F 59% 30.20 in 10.0 mi SW 12.7 mph - N/A   Clear
6:16 PM 64.4 °F 48.2 °F 56% 30.20 in 10.0 mi WSW 12.7 mph 17.3 mph N/A   Clear
6:36 PM 64.4 °F 50.0 °F 59% 30.20 in 10.0 mi WSW 10.4 mph - N/A   Scattered Clouds
7:16 PM 66.2 °F 48.2 °F 52% 30.20 in 10.0 mi WSW 9.2 mph - N/A   Mostly Cloudy
7:36 PM 66.2 °F 50.0 °F 56% 30.20 in 10.0 mi West 10.4 mph - N/A   Overcast
7:56 PM 64.4 °F 50.0 °F 59% 30.21 in 10.0 mi West 12.7 mph - N/A   Overcast
8:16 PM 64.4 °F 48.2 °F 56% 30.21 in 10.0 mi WSW 12.7 mph - N/A   Overcast
8:36 PM 62.6 °F 48.2 °F 59% 30.21 in 10.0 mi West 11.5 mph - N/A   Scattered Clouds
8:56 PM 62.6 °F 48.2 °F 59% 30.22 in 10.0 mi WSW 11.5 mph - N/A   Clear
9:16 PM 62.6 °F 48.2 °F 59% 30.22 in 10.0 mi WSW 10.4 mph - N/A   Clear
9:36 PM 60.8 °F 48.2 °F 63% 30.23 in 10.0 mi WSW 8.1 mph - N/A   Clear
9:56 PM 60.8 °F 48.2 °F 63% 30.24 in 10.0 mi WSW 10.4 mph - N/A   Clear
10:16 PM 57.2 °F 50.0 °F 77% 30.25 in 10.0 mi WSW 6.9 mph - N/A   Clear
10:36 PM 57.2 °F 50.0 °F 77% 30.25 in 10.0 mi SW 4.6 mph - N/A   Scattered Clouds
10:56 PM 57.2 °F 50.0 °F 77% 30.26 in 10.0 mi SSW 3.5 mph - N/A   Overcast
11:16 PM 57.2 °F 50.0 °F 77% 30.26 in 10.0 mi SSW 5.8 mph - N/A   Overcast
11:36 PM 55.4 °F 50.0 °F 82% 30.27 in 10.0 mi SSW 4.6 mph - N/A   Mostly Cloudy
11:56 PM 55.4 °F 50.0 °F 82% 30.27 in 10.0 mi SW 5.8 mph - N/A   Scattered Clouds